User: anonymous   Login
Location: Bangkok
(13.7500°N, 100.5170°E)
Time: 08:23:39
(UTC+07:00)
Language:

Cosmos 1802 Rocket - Orbit

View from above orbital plane
View from above orbital plane
View from above satellite
View from above satellite

Ground track
Ground track

The orbit data is extracted from the following two-line orbital elements,

1 17160U 86093B   17149.44987575 +.00000034 +00000-0 +19513-4 0  9992
2 17160 082.9290 078.2114 0038338 199.0951 298.7993 13.74591372530028
Epoch (UTC): 29 May 2017 10:47:49
Eccentricity: 0.0038338
inclination: 82.9290°
perigee height: 955 km
apogee height: 1011 km
right ascension of ascending node: 78.2114°
argument of perigee: 199.0951°
revolutions per day: 13.74591372
mean anomaly at epoch: 298.7993°
orbit number at epoch: 53002

The dashed part of the orbit path shows where the satellite is in the earth's shadow,  

DLR